User: anonymous   Login
Location: Koussan�
(15.2012°N, 12.5548°W)
Time: 00:39:38
(UTC+00:00)
Language:

FALCON 9 DEB - Orbit

View from above orbital plane
View from above orbital plane
View from above satellite
View from above satellite

Ground track
Ground track

The orbit data is extracted from the following two-line orbital elements,

1 46086U 20055BM  21015.57661122  .00006285  00000-0  78010-4 0  9996
2 46086  53.0070 225.1118 0015908  90.9639 269.3196 15.61418193 29770
Epoch (UTC): 15 January 2021 13:50:19
Eccentricity: 0.0015908
inclination: 53.0070°
perigee height: 373 km
apogee height: 394 km
right ascension of ascending node: 225.1118°
argument of perigee: 90.9639°
revolutions per day: 15.61418193
mean anomaly at epoch: 269.3196°
orbit number at epoch: 2977

The dashed part of the orbit path shows where the satellite is in the earth's shadow,  

DLR